CW4482 Weather Reports


Display with metric or nautical units.
time (UTC)temp
F
wind
direction
speed
MPH
gust
MPH
rain 1hr
in
rain 24hr
in
rain mn
in
humidity
%
barometer
mb
20260508193013 71 5 0.0 0.0 0.00 0.06 0.06 94 1010.5
20260508191531 71 5 0.0 0.0 0.00 0.06 0.06 94 1010.4
20260508190012 71 5 0.0 0.0 0.01 0.06 0.06 94 1010.9
20260508184513 71 5 0.0 0.0 0.03 0.06 0.06 93 1010.7
20260508183015 71 9 0.0 0.0 0.03 0.06 0.06 94 1010.7
20260508181551 70 5 0.0 0.0 0.03 0.06 0.06 93 1011.0
20260508180043 70 5 0.0 0.0 0.03 0.05 0.05 93 1011.3
20260508174522 70 360 0.0 0.0 0.01 0.03 0.03 93 1011.6
20260508173025 70 360 0.0 0.0 0.01 0.03 0.03 94 1011.8
20260508171512 69 360 0.0 0.0 0.01 0.03 0.03 94 1011.7
20260508170012 69 360 0.0 0.0 0.01 0.02 0.02 93 1011.9
20260508164515 68 360 0.0 0.0 0.01 0.02 0.02 93 1012.0
20260508163014 68 360 0.0 0.0 0.01 0.02 0.02 93 1012.6
20260508161536 68 355 0.0 0.0 0.02 0.02 0.02 93 1012.7
20260508160038 67 355 0.0 0.0 0.01 0.01 0.01 93 1013.1
20260508154518 67 355 0.0 0.0 0.01 0.01 0.01 93 1012.8
20260508153035 67 28 0.0 0.0 0.01 0.01 0.01 91 1012.9
20260508151514 67 24 0.0 0.0 0.00 0.00 0.00 90 1012.7
20260508150020 67 5 0.0 0.0 0.00 0.00 0.00 90 1012.9
20260508144521 67 11 0.0 0.0 0.00 0.00 0.00 90 1013.4
20260508143022 67 17 0.0 0.0 0.00 0.00 0.00 90 1013.4
20260508141522 68 22 0.0 0.0 0.00 0.00 0.00 89 1013.7
20260508140029 68 23 0.0 0.0 0.00 0.00 0.00 88 1013.3
20260508134528 68 20 0.0 0.0 0.00 0.00 0.00 88 1012.6
20260508133017 68 19 0.0 0.0 0.00 0.00 0.00 88 1012.6
20260508131518 68 19 0.0 0.0 0.00 0.00 0.00 87 1012.8
20260508130041 68 19 0.0 0.0 0.00 0.00 0.00 87 1012.9
20260508124530 68 18 0.0 0.0 0.00 0.00 0.00 87 1012.6
20260508123022 68 14 0.0 0.0 0.00 0.00 0.00 87 1012.8
20260508121526 68 13 0.0 0.0 0.00 0.00 0.00 86 1013.0
20260508120042 68 5 0.0 0.0 0.00 0.00 0.00 86 1012.8
20260508114524 68 5 0.0 0.0 0.00 0.00 0.00 86 1013.0
20260508113029 68 350 0.0 0.0 0.00 0.00 0.00 86 1012.9
20260508111531 68 5 0.0 0.0 0.00 0.00 0.00 85 1012.3
20260508110024 68 5 0.0 0.0 0.00 0.00 0.00 85 1012.7
20260508104549 68 20 0.0 0.0 0.00 0.00 0.00 86 1012.8
20260508103031 68 47 0.0 0.0 0.00 0.00 0.00 86 1012.2
20260508101512 68 13 0.0 0.0 0.00 0.00 0.00 86 1012.6
20260508100037 68 360 0.0 0.0 0.00 0.00 0.00 86 1013.0
20260508094554 68 45 0.0 0.0 0.00 0.00 0.00 87 1011.8
20260508093051 68 35 0.0 0.0 0.00 0.00 0.00 86 1012.4
20260508091532 68 35 0.0 0.0 0.00 0.00 0.00 86 1012.4
20260508090027 68 35 0.0 0.0 0.00 0.00 0.00 85 1012.7
20260508084530 68 24 0.0 0.0 0.00 0.00 0.00 85 1012.8
20260508083030 69 26 0.0 0.0 0.00 0.00 0.00 85 1012.7
20260508081523 69 24 0.0 0.0 0.00 0.00 0.00 84 1012.5
20260508080024 69 24 0.0 0.0 0.00 0.00 0.00 84 1012.9
20260508074512 69 24 0.0 0.0 0.00 0.00 0.00 84 1013.1
20260508073032 69 22 0.0 0.0 0.00 0.00 0.00 84 1012.8
20260508071524 69 18 0.0 0.0 0.00 0.00 0.00 84 1012.8
20260508070023 69 18 0.0 0.0 0.00 0.00 0.00 83 1012.7
20260508064526 69 19 0.0 0.0 0.00 0.00 0.00 84 1012.8
20260508063027 69 21 0.0 0.0 0.00 0.00 0.00 84 1012.9
20260508061526 69 20 0.0 0.0 0.00 0.00 0.00 83 1013.5
20260508060026 69 20 0.0 0.0 0.00 0.00 0.00 83 1012.8
20260508054548 69 20 0.0 0.0 0.00 0.00 0.00 82 1013.2
20260508053030 69 20 0.0 0.0 0.00 0.00 0.00 83 1013.0
20260508051529 70 19 0.0 0.0 0.00 0.00 0.00 82 1013.0
20260508050042 70 17 0.0 0.0 0.00 0.00 0.00 82 1013.1
20260508044518 70 18 0.0 0.0 0.00 0.00 0.00 82 1013.1
20260508043013 70 27 0.0 0.0 0.00 0.00 0.00 82 1013.0
20260508041537 70 18 0.0 0.0 0.00 0.00 0.00 81 1013.1
20260508040015 71 21 0.0 0.0 0.00 0.00 0.00 82 1013.1
20260508034517 71 18 0.0 0.0 0.00 0.00 0.00 81 1013.6
20260508033019 72 18 0.0 0.0 0.00 0.00 0.00 80 1013.7
20260508031539 72 22 0.0 0.0 0.00 0.00 0.00 81 1013.9
20260508030012 72 17 0.0 0.0 0.00 0.00 0.00 80 1013.8
20260508024518 72 15 0.0 0.0 0.00 0.00 0.00 81 1013.4
20260508023019 73 19 0.0 0.0 0.00 0.00 0.00 81 1013.8
20260508021517 73 22 0.0 0.0 0.00 0.00 0.00 79 1013.5
20260508020017 73 28 0.0 0.0 0.00 0.00 0.00 81 1013.1
20260508014513 73 30 0.0 0.0 0.00 0.00 0.00 79 1013.2
20260508013014 74 32 0.0 0.0 0.00 0.00 0.00 80 1013.1
20260508011518 74 32 0.0 0.0 0.00 0.00 0.00 79 1013.3
20260508010040 74 36 0.0 0.0 0.00 0.00 0.00 75 1013.0
20260508004521 75 344 0.0 0.0 0.00 0.00 0.00 77 1013.2
20260508003020 75 17 0.0 0.0 0.00 0.00 0.00 78 1013.1
20260508001537 75 24 0.0 0.0 0.00 0.00 0.00 78 1013.2
20260508000016 76 17 0.0 0.0 0.00 0.00 0.00 81 1013.4
20260507234543 76 32 0.0 0.0 0.00 0.00 0.00 79 1013.0
20260507233030 77 28 0.0 0.0 0.00 0.00 0.00 79 1013.0
20260507231532 77 27 0.0 0.0 0.00 0.00 0.00 77 1012.9
20260507230013 77 29 0.0 0.0 0.00 0.00 0.00 80 1012.7
20260507224522 77 5 0.0 0.0 0.00 0.00 0.00 78 1012.8
20260507223026 78 5 0.0 0.0 0.00 0.00 0.00 76 1012.6
20260507221550 80 14 0.0 0.0 0.00 0.00 0.00 69 1012.9
20260507220019 80 36 0.0 0.0 0.00 0.00 0.00 71 1013.1
20260507214522 80 19 0.0 0.0 0.00 0.00 0.00 71 1013.0
20260507213025 80 19 0.0 0.0 0.00 0.00 0.00 74 1013.2
20260507211524 79 22 0.0 0.0 0.00 0.00 0.00 72 1013.3
20260507210038 78 5 0.0 0.0 0.00 0.00 0.00 74 1013.3
20260507204528 77 32 0.0 0.0 0.00 0.00 0.00 77 1013.5
20260507203029 77 24 0.0 0.0 0.00 0.00 0.00 72 1013.7
20260507201530 78 22 0.0 0.0 0.00 0.00 0.00 77 1013.7
20260507200047 78 38 0.0 0.0 0.00 0.00 0.00 76 1014.0
20260507194530 77 360 0.0 0.0 0.00 0.00 0.00 72 1014.2